Woodside DE-Willow Grove DE USA current weather conditions

sailwx.info

Wind from 104 at 8 knots gusting 13

Air temperature 8.1° C
Dewpoint 6.0° C

Last reported at 2020-Jan-24 22:05 UTC.
Time now 2020-Jan-24 22:41 UTC

Location: N 39°04' W 075°38'.
View on Google Maps.

See reports from other nearby stations

  
Tides and Currents Weather Stations Pressure Air Temp Water Temp Dewpoint Dewpoint Depression Visibility Wind Speed Wind Dir Waves Ship Positions
date/time (UTC)wind fromknots sea level pressurealtimeterstation pressurevisibilityair tempwater tempwave heightnotes
2020-Jan-24 22:05 104 8 gusting 13 8.1
2020-Jan-24 22:00 103 8 gusting 13 8.1
2020-Jan-24 21:50 100 7 gusting 11 8.3
2020-Jan-24 21:45 105 8 gusting 12 8.5
2020-Jan-24 21:40 097 7 gusting 10 8.6
2020-Jan-24 21:35 107 8 gusting 13 8.7
2020-Jan-24 21:30 103 7 gusting 12 8.8
2020-Jan-24 21:25 100 7 gusting 10 8.9
2020-Jan-24 21:20 099 6 gusting 10 9.1
2020-Jan-24 21:15 102 7 gusting 11 9.2
2020-Jan-24 21:10 101 7 gusting 12 9.3
2020-Jan-24 21:05 097 6 gusting 11 9.4
2020-Jan-24 21:00 109 6 gusting 11 9.5
2020-Jan-24 20:55 102 5 gusting 8 9.5
2020-Jan-24 20:50 108 6 gusting 10 9.6
2020-Jan-24 20:45 097 6 gusting 10 9.7
2020-Jan-24 20:40 099 8 gusting 12 9.7
2020-Jan-24 20:35 101 7 gusting 12 9.9
2020-Jan-24 20:30 103 7 gusting 11 10.0
2020-Jan-24 20:25 110 8 gusting 12 10.1
2020-Jan-24 20:20 109 8 gusting 13 10.3
2020-Jan-24 20:15 107 8 gusting 13 10.5
2020-Jan-24 20:10 106 8 gusting 13 10.7
2020-Jan-24 20:05 100 9 gusting 14 11.1
2020-Jan-24 20:00 099 8 gusting 12 11.1
2020-Jan-24 19:55 102 8 gusting 14 11.4
2020-Jan-24 19:50 112 7 gusting 11 11.5
2020-Jan-24 19:45 119 8 gusting 13 11.4
2020-Jan-24 19:40 106 9 gusting 13 11.1
2020-Jan-24 19:35 103 8 gusting 14 11.5
2020-Jan-24 19:30 108 7 gusting 11 11.2
2020-Jan-24 19:25 096 9 gusting 13 11.1
2020-Jan-24 19:20 104 8 gusting 14 11.0
2020-Jan-24 19:15 097 9 gusting 13 11.1
2020-Jan-24 19:10 116 8 gusting 14 11.4
2020-Jan-24 19:05 117 8 gusting 14 11.3
2020-Jan-24 19:00 102 9 gusting 12 11.5
2020-Jan-24 18:55 116 9 gusting 13 11.5
2020-Jan-24 18:50 105 8 gusting 12 11.5
2020-Jan-24 18:45 096 7 gusting 13 11.5
2020-Jan-24 18:40 099 9 gusting 12 11.8
2020-Jan-24 18:35 114 7 gusting 11 12.1
2020-Jan-24 18:30 124 8 gusting 12 11.7
2020-Jan-24 18:25 130 9 gusting 14 11.7
2020-Jan-24 18:20 134 9 gusting 13 11.5
2020-Jan-24 18:15 137 9 gusting 14 11.4
2020-Jan-24 18:10 128 9 gusting 13 11.3
2020-Jan-24 18:05 131 9 gusting 14 11.5
2020-Jan-24 18:00 114 7 gusting 12 11.5
2020-Jan-24 17:55 122 6 gusting 10 11.1
2020-Jan-24 17:50 098 6 gusting 10 11.0
2020-Jan-24 17:45 100 5 gusting 9 10.6
2020-Jan-24 17:40 105 5 gusting 9 10.2
2020-Jan-24 17:35 113 6 gusting 8 9.4
2020-Jan-24 17:30 125 7 gusting 13 9.2
2020-Jan-24 17:25 124 7 gusting 13 9.2
2020-Jan-24 17:20 113 7 gusting 10 9.0
2020-Jan-24 17:15 104 6 gusting 10 9.0
2020-Jan-24 17:10 096 8 gusting 12 8.5
2020-Jan-24 17:05 102 7 gusting 11 8.4
2020-Jan-24 17:00 105 6 gusting 10 8.3
2020-Jan-24 16:55 107 7 gusting 13 8.2
2020-Jan-24 16:50 114 7 gusting 13 8.0
2020-Jan-24 16:45 105 7 gusting 12 8.0
2020-Jan-24 16:40 101 7 gusting 11 7.8
2020-Jan-24 16:35 098 8 gusting 10 7.7
2020-Jan-24 16:30 100 7 gusting 10 7.6
2020-Jan-24 16:25 104 7 gusting 9 7.5
2020-Jan-24 16:20 110 6 gusting 10 7.3
2020-Jan-24 16:15 101 7 gusting 11 7.1
2020-Jan-24 16:10 100 6 gusting 10 7.1
2020-Jan-24 16:05 102 6 gusting 10 6.9
2020-Jan-24 16:00 091 6 gusting 10 7.0
2020-Jan-24 15:55 094 6 gusting 11 6.9
2020-Jan-24 15:50 094 5 gusting 8 6.7
2020-Jan-24 15:45 098 5 gusting 9 6.5
2020-Jan-24 15:40 087 7 gusting 10 6.4
2020-Jan-24 15:35 088 6 gusting 9 6.4
2020-Jan-24 15:30 092 5 gusting 9 6.2
2020-Jan-24 15:25 087 6 gusting 10 5.9
2020-Jan-24 15:20 085 6 gusting 8 5.8
2020-Jan-24 15:15 088 5 gusting 8 5.7
2020-Jan-24 15:10 086 6 gusting 8 5.6
2020-Jan-24 15:05 092 6 gusting 9 5.5
2020-Jan-24 15:00 092 5 gusting 8 5.4
2020-Jan-24 14:55 090 5 gusting 8 5.5
2020-Jan-24 14:50 088 4 gusting 7 5.3
2020-Jan-24 14:45 083 4 gusting 5 5.1
2020-Jan-24 14:40 075 4 gusting 6 4.7
2020-Jan-24 14:35 082 4 gusting 6 4.5
2020-Jan-24 14:30 078 5 gusting 7 4.5
2020-Jan-24 14:25 083 3 gusting 4 4.3
2020-Jan-24 14:20 082 3 gusting 6 3.9
2020-Jan-24 14:15 062 4 gusting 6 3.6
2020-Jan-24 14:10 072 5 gusting 8 3.4
2020-Jan-24 14:05 066 5 gusting 8 3.1
2020-Jan-24 14:00 069 4 gusting 6 2.7
2020-Jan-24 13:55 065 3 gusting 6 2.5
2020-Jan-24 13:50 064 3 gusting 4 2.2
2020-Jan-24 13:45 059 2 gusting 3 1.9
2020-Jan-24 13:40 058 2 gusting 2 1.5
2020-Jan-24 13:35 050 0 gusting 1 1.3
2020-Jan-24 13:30 041 0 gusting 1 1.1
2020-Jan-24 13:25 023 0 gusting 1 0.8
2020-Jan-24 13:20 012 0 gusting 1 0.5
2020-Jan-24 13:15 008 1 gusting 1 0.0
2020-Jan-24 13:10 029 0 gusting 1 -0.1
2020-Jan-24 13:05 029 0 gusting 1 0.0
2020-Jan-24 13:00 018 1 gusting 2 0.1
2020-Jan-24 12:55 008 1 gusting 2 -0.2
2020-Jan-24 12:50 004 1 gusting 1 -0.6
2020-Jan-24 12:45 044 0 gusting 1 -1.2
2020-Jan-24 12:40 -1.3
2020-Jan-24 12:35 -1.5
2020-Jan-24 12:30 049 0 gusting 0 -1.7
2020-Jan-24 12:25 049 0 gusting 0 -1.2
2020-Jan-24 12:20 049 0 gusting 0 -0.8
2020-Jan-24 12:15 051 0 gusting 1 -0.7
2020-Jan-24 12:10 042 1 gusting 1 -1.4
2020-Jan-24 12:05 045 1 gusting 1 -1.5
2020-Jan-24 12:00 050 1 gusting 1 -1.4
2020-Jan-24 11:55 048 1 gusting 1 -1.5
2020-Jan-24 11:50 042 1 gusting 1 -1.3
2020-Jan-24 11:45 042 1 gusting 1 -1.2
2020-Jan-24 11:40 056 1 gusting 2 -1.5
2020-Jan-24 11:35 068 0 gusting 0 -1.5
2020-Jan-24 11:30 068 0 gusting 0 -1.4
2020-Jan-24 11:25 068 1 gusting 1 -1.4
2020-Jan-24 11:20 089 1 gusting 1 -1.4
2020-Jan-24 11:15 081 1 gusting 2 -1.4
2020-Jan-24 11:10 064 1 gusting 2 -1.6
2020-Jan-24 11:05 051 2 gusting 3 -1.8
2020-Jan-24 11:00 055 2 gusting 2 -2.1
2020-Jan-24 10:55 034 2 gusting 2 -2.1
2020-Jan-24 10:50 027 1 gusting 2 -2.1
2020-Jan-24 10:45 069 1 gusting 1 -2.5
2020-Jan-24 10:40 077 0 gusting 0 -2.6
2020-Jan-24 10:35 042 1 gusting 2 -2.8
2020-Jan-24 10:30 058 1 gusting 2 -3.5
2020-Jan-24 10:25 -3.7
2020-Jan-24 10:20 096 0 gusting 0 -3.7
2020-Jan-24 10:15 034 1 gusting 2 -3.7
2020-Jan-24 10:10 042 1 gusting 2 -3.9
2020-Jan-24 10:05 045 0 gusting 1 -4.0
2020-Jan-24 10:00 046 0 gusting 0 -4.1
2020-Jan-24 09:55 046 0 gusting 0 -3.8
2020-Jan-24 09:50 012 0 gusting 1 -4.3
2020-Jan-24 09:45 004 0 gusting 0 -4.1
2020-Jan-24 09:40 315 0 gusting 1 -3.8
2020-Jan-24 09:35 -3.6
2020-Jan-24 09:30 051 0 gusting 0 -3.8
2020-Jan-24 09:25 -3.5
2020-Jan-24 09:20 043 0 gusting 1 -3.5
2020-Jan-24 09:15 027 0 gusting 1 -4.1
2020-Jan-24 09:10 -4.0
2020-Jan-24 09:05 -3.6
2020-Jan-24 09:00 028 0 gusting 0 -3.7
2020-Jan-24 08:55 050 0 gusting 0 -3.9
2020-Jan-24 08:50 044 0 gusting 1 -3.8
2020-Jan-24 08:45 039 0 gusting 1 -4.0
2020-Jan-24 08:40 034 0 gusting 1 -4.1
2020-Jan-24 08:35 279 0 gusting 0 -3.7
2020-Jan-24 08:30 -3.9
2020-Jan-24 08:25 225 0 gusting 0 -3.9
2020-Jan-24 08:20 225 0 gusting 0 -3.8
2020-Jan-24 08:15 -4.0
2020-Jan-24 08:10 -3.5
2020-Jan-24 08:05 -3.5
2020-Jan-24 08:00 -3.6
2020-Jan-24 07:55 -3.8
2020-Jan-24 07:50 305 0 gusting 0 -3.7
2020-Jan-24 07:45 305 0 gusting 0 -3.4
2020-Jan-24 07:40 -3.5
2020-Jan-24 07:35 266 0 gusting 0 -3.2
2020-Jan-24 07:30 264 1 gusting 1 -3.3
2020-Jan-24 07:25 226 0 gusting 1 -3.5
2020-Jan-24 07:20 224 0 gusting 0 -3.5
2020-Jan-24 07:15 -3.1
2020-Jan-24 07:10 312 0 gusting 1 -2.7
2020-Jan-24 07:05 346 0 gusting 1 -2.2
2020-Jan-24 07:00 014 1 gusting 1 -2.4
2020-Jan-24 06:55 014 0 gusting 1 -2.3
2020-Jan-24 06:50 014 0 gusting 1 -2.0
2020-Jan-24 06:45 308 1 gusting 1 -1.7
2020-Jan-24 06:40 296 0 gusting 1 -2.1
2020-Jan-24 06:35 287 0 gusting 1 -2.5
2020-Jan-24 06:30 312 0 gusting 0 -2.5
2020-Jan-24 06:25 316 0 gusting 0 -2.7
2020-Jan-24 06:20 083 0 gusting 1 -2.7
2020-Jan-24 06:15 066 0 gusting 1 -2.8
2020-Jan-24 06:10 045 0 gusting 1 -2.9
2020-Jan-24 06:05 041 1 gusting 1 -2.9
2020-Jan-24 06:00 041 0 gusting 1 -2.8
2020-Jan-24 05:55 -2.5
2020-Jan-24 05:50 301 0 gusting 0 -2.6
2020-Jan-24 05:45 301 0 gusting 0 -2.9
2020-Jan-24 05:40 -2.8
2020-Jan-24 05:35 276 0 gusting 1 -2.7
2020-Jan-24 05:30 276 1 gusting 1 -2.4
2020-Jan-24 05:25 313 0 gusting 1 -2.0
2020-Jan-24 05:20 -2.0
2020-Jan-24 05:15 -2.0
2020-Jan-24 05:10 -2.0
2020-Jan-24 05:05 042 0 gusting 0 -1.9
2020-Jan-24 05:00 027 0 gusting 1 -1.7
2020-Jan-24 04:55 352 0 gusting 0 -1.6
2020-Jan-24 04:50 352 0 gusting 0 -1.7
2020-Jan-24 04:45 348 0 gusting 1 -1.9
2020-Jan-24 04:40 352 0 gusting 1 -1.9
2020-Jan-24 04:35 -1.9
2020-Jan-24 04:30 -1.9
2020-Jan-24 04:25 -1.9
2020-Jan-24 04:20 -1.8
2020-Jan-24 04:15 -1.5
2020-Jan-24 04:10 352 0 gusting 0 -1.4
2020-Jan-24 04:05 352 0 gusting 0 -1.4
2020-Jan-24 04:00 352 0 gusting 0 -1.4
2020-Jan-24 03:55 352 0 gusting 0 -1.3
2020-Jan-24 03:50 352 0 gusting 0 -1.3
2020-Jan-24 03:45 347 0 gusting 1 -1.5
2020-Jan-24 03:40 336 0 gusting 0 -1.6
2020-Jan-24 03:35 -1.5
2020-Jan-24 03:30 -1.3
2020-Jan-24 03:25 326 0 gusting 0 -1.1
2020-Jan-24 03:20 325 1 gusting 1 -1.2
2020-Jan-24 03:15 331 0 gusting 1 -1.3
2020-Jan-24 03:10 127 0 gusting 1 -1.3
2020-Jan-24 03:05 127 0 gusting 0 -1.1
2020-Jan-24 03:00 002 0 gusting 1 -1.0
2020-Jan-24 02:55 013 1 gusting 1 -1.1
2020-Jan-24 02:50 015 1 gusting 1 -1.3
2020-Jan-24 02:45 019 0 gusting 1 -1.4
2020-Jan-24 02:40 044 0 gusting 0 -1.4
2020-Jan-24 02:35 -1.3
2020-Jan-24 02:30 048 0 gusting 1 -1.2
2020-Jan-24 02:25 073 0 gusting 1 -1.2
2020-Jan-24 02:20 073 1 gusting 1 -1.1
2020-Jan-24 02:15 -1.1
2020-Jan-24 02:10 -1.1
2020-Jan-24 02:05 048 0 gusting 0 -1.2
2020-Jan-24 02:00 050 0 gusting 1 -1.3
2020-Jan-24 01:55 -1.2
2020-Jan-24 01:50 330 0 gusting 0 -1.0
2020-Jan-24 01:45 318 1 gusting 2 -0.5
2020-Jan-24 01:40 330 2 gusting 2 -0.1
2020-Jan-24 01:35 336 2 gusting 2 -0.2
2020-Jan-24 01:30 301 1 gusting 2 -0.4
2020-Jan-24 01:25 301 1 gusting 2 -0.4
2020-Jan-24 01:20 200 0 gusting 0 -0.5
2020-Jan-24 01:15 189 0 gusting 1 -0.4
2020-Jan-24 01:10 086 0 gusting 1 -0.2
2020-Jan-24 01:05 018 1 gusting 1 -0.2
2020-Jan-24 01:00 021 1 gusting 2 -0.4
2020-Jan-24 00:55 047 2 gusting 2 -0.4
2020-Jan-24 00:50 306 1 gusting 2 -0.4
2020-Jan-24 00:45 250 1 gusting 1 -0.5
2020-Jan-24 00:40 241 0 gusting 0 -0.5
2020-Jan-24 00:35 114 0 gusting 1 -0.4
2020-Jan-24 00:30 102 0 gusting 1 -0.1
2020-Jan-24 00:25 -0.1
2020-Jan-24 00:20 -0.2
2020-Jan-24 00:15 -0.3
2020-Jan-24 00:10 -0.3
2020-Jan-24 00:05 -0.4
2020-Jan-24 00:00 -0.5
2020-Jan-23 23:55 -0.6
2020-Jan-23 23:50 122 0 gusting 1 -0.5
2020-Jan-23 23:45 106 1 gusting 1 -0.4
2020-Jan-23 23:40 098 0 gusting 0 -0.2
2020-Jan-23 23:35 096 0 gusting 1 0.2
2020-Jan-23 23:30 354 0 gusting 1 0.0
2020-Jan-23 23:25 056 0 gusting 1 -0.1
2020-Jan-23 23:20 094 0 gusting 1 0.1
2020-Jan-23 23:15 092 1 gusting 1 0.3
2020-Jan-23 23:10 030 0 gusting 1 0.6
2020-Jan-23 23:05 028 0 gusting 0 1.1
2020-Jan-23 23:00 032 0 gusting 0 1.8
2020-Jan-23 22:55 043 0 gusting 0 1.9
2020-Jan-23 22:50 052 0 gusting 1 1.9
2020-Jan-23 22:45 354 0 gusting 0 1.7
2020-Jan-23 22:40 063 0 gusting 1 1.7
2020-Jan-23 22:35 078 1 gusting 2 2.0
2020-Jan-23 22:30 047 1 gusting 2 2.6
2020-Jan-23 22:25 063 1 gusting 2 2.8
2020-Jan-23 22:20 070 0 gusting 0 3.0
2020-Jan-23 22:15 3.2
2020-Jan-23 22:10 070 0 gusting 0 3.4
2020-Jan-23 22:05 100 0 gusting 0 3.5
2020-Jan-23 22:00 3.7
2020-Jan-23 21:55 192 0 gusting 0 4.0
2020-Jan-23 21:50 182 0 gusting 1 4.2
2020-Jan-23 21:45 157 1 gusting 1 4.3
2020-Jan-23 21:40 154 1 gusting 2 4.4
2020-Jan-23 21:35 129 1 gusting 2 4.5
2020-Jan-23 21:30 126 1 gusting 2 4.7
2020-Jan-23 21:25 119 2 gusting 2 4.8
2020-Jan-23 21:20 118 1 gusting 2 4.9
2020-Jan-23 21:15 120 1 gusting 2 5.0
2020-Jan-23 21:10 120 1 gusting 2 5.1
2020-Jan-23 21:05 132 2 gusting 2 5.2
2020-Jan-23 21:00 151 1 gusting 2 5.3
2020-Jan-23 20:55 107 2 gusting 3 5.3
2020-Jan-23 20:50 115 1 gusting 3 5.5
2020-Jan-23 20:45 119 1 gusting 2 5.5
2020-Jan-23 20:40 115 1 gusting 2 5.7
2020-Jan-23 20:35 156 1 gusting 2 5.7
2020-Jan-23 20:30 164 1 gusting 2 5.7
2020-Jan-23 20:25 131 0 gusting 1 5.6
2020-Jan-23 20:20 102 1 gusting 2 5.5
2020-Jan-23 20:15 082 2 gusting 3 5.6
2020-Jan-23 20:10 080 1 gusting 2 5.7
2020-Jan-23 20:05 082 1 gusting 2 5.7
2020-Jan-23 20:00 099 2 gusting 4 5.6
2020-Jan-23 19:55 085 2 gusting 3 5.6
2020-Jan-23 19:50 105 1 gusting 4 5.6
2020-Jan-23 19:45 105 2 gusting 4 5.6
2020-Jan-23 19:40 101 2 gusting 4 5.5
2020-Jan-23 19:35 111 3 gusting 4 5.5
2020-Jan-23 19:30 111 3 gusting 4 5.5
2020-Jan-23 19:25 098 3 gusting 4 5.4
2020-Jan-23 19:20 098 3 gusting 5 5.5
2020-Jan-23 19:15 092 3 gusting 4 5.4
2020-Jan-23 19:10 073 2 gusting 4 5.4
2020-Jan-23 19:05 082 2 gusting 3 5.4
2020-Jan-23 19:00 096 2 gusting 3 5.3
2020-Jan-23 18:55 079 2 gusting 3 5.3
2020-Jan-23 18:50 062 2 gusting 4 5.4
2020-Jan-23 18:45 188 1 gusting 2 5.3
2020-Jan-23 18:40 054 1 gusting 4 5.3
2020-Jan-23 18:35 030 2 gusting 5 5.5
2020-Jan-23 18:30 040 1 gusting 4 5.2
2020-Jan-23 18:25 076 2 gusting 4 5.2
2020-Jan-23 18:20 100 3 gusting 4 5.2
2020-Jan-23 18:15 085 2 gusting 3 4.9
2020-Jan-23 18:10 066 2 gusting 3 4.9
2020-Jan-23 18:05 083 2 gusting 4 4.8
2020-Jan-23 18:00 061 2 gusting 6 5.0
2020-Jan-23 17:55 075 2 gusting 4 5.0
2020-Jan-23 17:50 063 3 gusting 5 4.9
2020-Jan-23 17:45 067 3 gusting 4 4.8
2020-Jan-23 17:40 102 3 gusting 5 4.9
2020-Jan-23 17:35 089 3 gusting 5 4.8
2020-Jan-23 17:30 093 3 gusting 5 4.7
2020-Jan-23 17:25 069 2 gusting 4 4.7
2020-Jan-23 17:20 090 0 gusting 1 4.4
2020-Jan-23 17:15 064 3 gusting 5 4.3
2020-Jan-23 17:10 078 1 gusting 4 4.2
2020-Jan-23 17:05 045 2 gusting 3 4.4
2020-Jan-23 17:00 008 2 gusting 5 4.3
2020-Jan-23 16:55 053 2 gusting 3 4.2
2020-Jan-23 16:50 015 1 gusting 3 3.7
2020-Jan-23 16:45 018 2 gusting 4 3.6
2020-Jan-23 16:40 029 1 gusting 2 3.5
2020-Jan-23 16:35 022 2 gusting 3 3.5
2020-Jan-23 16:30 022 2 gusting 5 3.2
2020-Jan-23 16:25 055 2 gusting 4 3.3
2020-Jan-23 16:20 071 2 gusting 4 3.3
2020-Jan-23 16:15 066 2 gusting 3 3.3
2020-Jan-23 16:10 063 2 gusting 3 3.0
2020-Jan-23 16:05 066 2 gusting 4 2.7
2020-Jan-23 16:00 055 2 gusting 4 2.6
2020-Jan-23 15:55 050 2 gusting 4 2.5
2020-Jan-23 15:50 016 2 gusting 4 2.2
2020-Jan-23 15:45 023 3 gusting 5 2.0
2020-Jan-23 15:40 018 3 gusting 4 2.2
2020-Jan-23 15:35 046 2 gusting 5 2.0
2020-Jan-23 15:30 046 3 gusting 5 1.8
2020-Jan-23 15:25 035 3 gusting 5 1.8
2020-Jan-23 15:20 043 3 gusting 4 1.7
2020-Jan-23 15:15 046 2 gusting 4 1.5
2020-Jan-23 15:10 034 3 gusting 4 1.5
2020-Jan-23 15:05 040 2 gusting 3 1.3
2020-Jan-23 15:00 043 3 gusting 4 1.3
2020-Jan-23 14:55 044 2 gusting 5 1.2
2020-Jan-23 14:50 041 2 gusting 3 0.9
2020-Jan-23 14:45 033 2 gusting 3 0.7
2020-Jan-23 14:40 054 2 gusting 4 0.4
2020-Jan-23 14:35 050 2 gusting 3 0.1
2020-Jan-23 14:30 043 2 gusting 3 -0.2
2020-Jan-23 14:25 033 1 gusting 2 -0.5
2020-Jan-23 14:20 043 1 gusting 1 -0.8
2020-Jan-23 14:15 044 1 gusting 1 -1.1
2020-Jan-23 14:10 057 0 gusting 1 -1.3
2020-Jan-23 14:05 033 0 gusting 0 -1.6
2020-Jan-23 14:00 033 0 gusting 0 -1.8
2020-Jan-23 13:55 144 0 gusting 1 -1.8
2020-Jan-23 13:50 167 0 gusting 1 -2.4
2020-Jan-23 13:45 088 0 gusting 1 -3.1
2020-Jan-23 13:40 087 1 gusting 1 -3.6
2020-Jan-23 13:35 084 0 gusting 1 -4.1
2020-Jan-23 13:30 041 1 gusting 1 -4.5
2020-Jan-23 13:25 055 1 gusting 2 -4.6
2020-Jan-23 13:20 -4.8
2020-Jan-23 13:15 042 0 gusting 0 -5.2
2020-Jan-23 13:10 042 0 gusting 0 -5.2
2020-Jan-23 13:05 -5.3
2020-Jan-23 13:00 038 0 gusting 0 -6.0
2020-Jan-23 12:55 038 0 gusting 0 -6.2
2020-Jan-23 12:50 038 0 gusting 0 -6.6
2020-Jan-23 12:45 -6.8
2020-Jan-23 12:40 038 0 gusting 0 -7.0
2020-Jan-23 12:35 038 0 gusting 1 -7.0
2020-Jan-23 12:30 -7.0
2020-Jan-23 12:25 038 0 gusting 0 -7.0
2020-Jan-23 12:20 038 0 gusting 0 -7.1
2020-Jan-23 12:15 -7.3
2020-Jan-23 12:10 -7.5
2020-Jan-23 12:05 038 0 gusting 0 -7.5
2020-Jan-23 12:00 038 0 gusting 0 -7.5
2020-Jan-23 11:55 038 0 gusting 0 -7.4
2020-Jan-23 11:50 038 0 gusting 0 -7.5
2020-Jan-23 11:45 049 0 gusting 0 -7.7
2020-Jan-23 11:40 -7.7
2020-Jan-23 11:35 -7.9
2020-Jan-23 11:30 061 0 gusting 0 -8.1
2020-Jan-23 11:25 337 0 gusting 1 -8.3
2020-Jan-23 11:20 -8.4
2020-Jan-23 11:15 -8.5
2020-Jan-23 11:10 -8.5
2020-Jan-23 11:05 -8.2
2020-Jan-23 11:00 270 0 gusting 0 -7.9
2020-Jan-23 10:55 261 0 gusting 0 -7.9
2020-Jan-23 10:50 248 0 gusting 0 -7.9
2020-Jan-23 10:45 248 0 gusting 0 -8.1
2020-Jan-23 10:40 -8.1
2020-Jan-23 10:35 -8.1
2020-Jan-23 10:30 -8.2
2020-Jan-23 10:25 -8.2
2020-Jan-23 10:20 -8.0
2020-Jan-23 10:15 -8.0
2020-Jan-23 10:10 -8.2
2020-Jan-23 10:05 -8.3
2020-Jan-23 10:00 248 0 gusting 0 -8.3
2020-Jan-23 09:55 -8.2
2020-Jan-23 09:50 296 0 gusting 0 -7.8
2020-Jan-23 09:45 297 1 gusting 1 -7.4
2020-Jan-23 09:40 277 0 gusting 1 -7.4
2020-Jan-23 09:35 160 0 gusting 0 -7.8
2020-Jan-23 09:30 -7.9
2020-Jan-23 09:25 -7.6
2020-Jan-23 09:20 -7.6
2020-Jan-23 09:15 -8.1
2020-Jan-23 09:10 168 0 gusting 1 -8.2
2020-Jan-23 09:05 178 0 gusting 1 -8.1
2020-Jan-23 09:00 326 0 gusting 0 -7.7
2020-Jan-23 08:55 327 0 gusting 0 -7.5
2020-Jan-23 08:50 340 0 gusting 1 -7.0
2020-Jan-23 08:45 -7.5
2020-Jan-23 08:40 -7.8
2020-Jan-23 08:35 -7.4
2020-Jan-23 08:30 -6.9
2020-Jan-23 08:25 -7.0
2020-Jan-23 08:20 -7.1
2020-Jan-23 08:15 -7.1
2020-Jan-23 08:10 248 0 gusting 0 -7.2
2020-Jan-23 08:05 -7.6
2020-Jan-23 08:00 -7.7
2020-Jan-23 07:55 -7.5
2020-Jan-23 07:50 248 0 gusting 0 -7.2
2020-Jan-23 07:45 248 0 gusting 1 -7.4
2020-Jan-23 07:40 248 0 gusting 0 -7.7
2020-Jan-23 07:35 248 0 gusting 0 -7.6
2020-Jan-23 07:30 254 0 gusting 1 -7.4
2020-Jan-23 07:25 259 0 gusting 1 -7.3
2020-Jan-23 07:20 -7.5
2020-Jan-23 07:15 -7.3
2020-Jan-23 07:10 -6.7
2020-Jan-23 07:05 -6.7
2020-Jan-23 07:00 -7.3
2020-Jan-23 06:55 -7.4
2020-Jan-23 06:50 -7.4
2020-Jan-23 06:45 -7.4
2020-Jan-23 06:40 -7.1
2020-Jan-23 06:35 328 0 gusting 1 -6.7
2020-Jan-23 06:30 331 1 gusting 1 -6.8
2020-Jan-23 06:25 332 0 gusting 1 -6.5
2020-Jan-23 06:20 322 0 gusting 1 -6.4
2020-Jan-23 06:15 -6.7
2020-Jan-23 06:10 -7.0
2020-Jan-23 06:05 -7.0
2020-Jan-23 06:00 -6.8
2020-Jan-23 05:55 -6.8
2020-Jan-23 05:50 -7.0
2020-Jan-23 05:45 -6.9
2020-Jan-23 05:40 -6.7
2020-Jan-23 05:35 221 0 gusting 0 -6.6
2020-Jan-23 05:30 221 0 gusting 0 -6.6
2020-Jan-23 05:25 220 0 gusting 1 -6.6
2020-Jan-23 05:20 216 1 gusting 1 -6.8
2020-Jan-23 05:15 205 0 gusting 1 -6.9
2020-Jan-23 05:10 193 1 gusting 1 -7.1
2020-Jan-23 05:05 201 0 gusting 1 -7.0
2020-Jan-23 05:00 269 0 gusting 0 -6.8
2020-Jan-23 04:55 267 0 gusting 1 -6.7
2020-Jan-23 04:50 273 0 gusting 1 -6.6
2020-Jan-23 04:45 311 0 gusting 1 -6.7
2020-Jan-23 04:40 -6.3
2020-Jan-23 04:35 347 0 gusting 1 -5.8
2020-Jan-23 04:30 347 0 gusting 1 -5.8
2020-Jan-23 04:25 347 1 gusting 1 -5.9
2020-Jan-23 04:20 347 0 gusting 1 -6.3
2020-Jan-23 04:15 -6.5
2020-Jan-23 04:10 -6.4
2020-Jan-23 04:05 256 0 gusting 0 -6.1
2020-Jan-23 04:00 248 1 gusting 1 -6.3
2020-Jan-23 03:55 216 2 gusting 2 -6.5
2020-Jan-23 03:50 203 2 gusting 2 -6.5
2020-Jan-23 03:45 291 0 gusting 1 -5.7
2020-Jan-23 03:40 350 1 gusting 1 -5.9
2020-Jan-23 03:35 340 0 gusting 1 -5.9
2020-Jan-23 03:30 326 0 gusting 0 -5.3
2020-Jan-23 03:25 -5.5
2020-Jan-23 03:20 -5.9
2020-Jan-23 03:15 -6.1
2020-Jan-23 03:10 -6.2
2020-Jan-23 03:05 -6.2
2020-Jan-23 03:00 -6.0
2020-Jan-23 02:55 -5.5
2020-Jan-23 02:50 324 0 gusting 0 -4.8
2020-Jan-23 02:45 324 0 gusting 1 -4.9
2020-Jan-23 02:40 -5.1
2020-Jan-23 02:35 -5.3
2020-Jan-23 02:30 -5.6
2020-Jan-23 02:25 -5.6
2020-Jan-23 02:20 -5.5
2020-Jan-23 02:15 -5.3
2020-Jan-23 02:10 038 0 gusting 1 -5.0
2020-Jan-23 02:05 266 0 gusting 0 -5.1
2020-Jan-23 02:00 255 0 gusting 0 -5.5
2020-Jan-23 01:55 -5.6
2020-Jan-23 01:50 -5.1
2020-Jan-23 01:45 -4.5
2020-Jan-23 01:40 -4.8
2020-Jan-23 01:35 -4.8
2020-Jan-23 01:30 -4.7
2020-Jan-23 01:25 254 0 gusting 0 -4.7
2020-Jan-23 01:20 -4.7
2020-Jan-23 01:15 -4.8
2020-Jan-23 01:10 -4.7
2020-Jan-23 01:05 -4.5
2020-Jan-23 01:00 -4.4
2020-Jan-23 00:55 -3.7
2020-Jan-23 00:50 001 0 gusting 1 -3.7
2020-Jan-23 00:45 347 0 gusting 1 -4.6
2020-Jan-23 00:40 -4.6
2020-Jan-23 00:35 294 0 gusting 0 -4.1
2020-Jan-23 00:30 -4.1
2020-Jan-23 00:25 -4.1
2020-Jan-23 00:20 -3.5
2020-Jan-23 00:15 -3.1
2020-Jan-23 00:10 302 0 gusting 1 -3.6
2020-Jan-23 00:05 222 2 gusting 3 -3.9
2020-Jan-23 00:00 201 2 gusting 3 -3.8
2020-Jan-22 23:55 037 0 gusting 0 -3.7
2020-Jan-22 23:50 145 0 gusting 1 -3.4
2020-Jan-22 23:45 055 0 gusting 2 -3.0
2020-Jan-22 23:40 009 0 gusting 1 -2.8
2020-Jan-22 23:35 -2.3
2020-Jan-22 23:30 261 0 gusting 1 -1.9
2020-Jan-22 23:25 260 0 gusting 1 -2.4
2020-Jan-22 23:20 -2.8
2020-Jan-22 23:15 160 0 gusting 1 -2.9
2020-Jan-22 23:10 157 0 gusting 1 -2.8
2020-Jan-22 23:05 238 0 gusting 0 -2.6
2020-Jan-22 23:00 225 0 gusting 1 -2.7
2020-Jan-22 22:55 213 0 gusting 1 -2.7
2020-Jan-22 22:50 275 0 gusting 1 -1.7
2020-Jan-22 22:45 321 1 gusting 1 -1.4
2020-Jan-22 22:40 279 1 gusting 1 -0.8
2020-Jan-22 22:35 323 0 gusting 1 0.8
2020-Jan-22 22:30 340 1 gusting 2 1.2
2020-Jan-22 22:25 353 1 gusting 2 1.5
2020-Jan-22 22:20 349 1 gusting 1 1.5
2020-Jan-22 22:15 335 1 gusting 2 1.7
2020-Jan-22 22:10 005 2 gusting 4 2.1
2020-Jan-22 22:05 009 2 gusting 2 2.3
2020-Jan-22 22:00 008 2 gusting 3 2.5